Location: Cerroniocc
(13.7547°S, 72.0222°W)
Time: 19:25:13
(UTC+00:00)

Cosmos 1470 - Pass Details

Date: 05 July 2020
Orbit: 522 x 541 km, 82.5° (Epoch: 11 August)

Event Time Altitude Azimuth Distance (km) Brightness Sun altitude
Rises 23:03:56 0° 10° (N) 2,677 6.5 -7.7°
Reaches altitude 10° 23:06:10 10° 18° (NNE) 1,794 5.5 -8.2°
Maximum altitude 23:09:51 39° 87° (E) 829 3.3 -9.1°
Drops below altitude 10° 23:13:35 10° 156° (SSE) 1,815 5.1 -9.9°
Enters shadow 23:15:28 - 163° (SSE) 2,557 5.9 -10.4°
